RH
57 72 78 63 88 56 73 58 47 48 43 42 38 38 54 53 54 71 79 85 79 73 92 88 76 69 66 66 62 55 47 59 70 71 66 49 61 62 58 79 60 58 81 70 50 83 70 56 65
75 80 79 91 93 76 70 43 54 45 36 38 37 39 42 51 58 75 78 82 64 65 68 85 51 49 52 64 52 50 50 54 58 58 56 62 63 58 69 69 79 68 60 63 50 52 58 62 65
74 78 85 71 59 68 82 48 46 40 37 43 40 45 52 58 64 65 67 62 57 57 67 74 67 68 70 78 76 76 68 62 65 67 66 64 70 73 76 77 76 68 64 63 69 69 61 58 60
70 75 89 90 65 49 60 53 41 38 41 46 44 51 64 60 60 66 62 55 52 55 72 61 59 56 70 72 69 68 68 68 68 68 71 63 67 74 76 68 64 61 73 75 72 64 59 58 57
68 81 83 68 60 58 46 56 68 41 48 45 48 60 66 66 62 62 58 50 50 55 81 74 73 70 72 74 75 64 71 74 73 74 70 66 69 69 62 72 61 59 64 72 73 66 63 59 53
85 66 66 67 50 55 49 66 72 45 47 47 55 64 71 70 63 58 53 47 49 55 68 92 66 50 63 65 68 68 69 67 69 74 73 72 64 56 56 60 64 60 69 75 67 64 63 58 58
66 75 61 49 46 67 58 73 74 52 51 51 47 58 74 71 62 55 49 46 50 53 68 87 95 65 74 73 68 70 68 72 84 67 59 62 52 53 58 66 64 67 71 75 76 68 63 59 54
66 65 52 49 48 70 50 56 67 53 61 48 51 57 73 71 62 52 48 46 49 52 60 71 85 90 92 91 72 72 70 74 69 58 49 46 49 61 71 69 61 63 65 75 71 66 63 63 60
62 63 57 69 51 49 49 53 60 64 55 52 49 52 66 68 60 51 49 46 53 53 53 56 65 75 85 97 72 71 67 72 65 54 72 75 79 84 88 70 66 61 60 65 67 63 64 62 58
56 47 78 36 41 39 38 47 57 57 47 44 47 56 67 62 58 53 47 46 48 50 49 48 56 65 71 72 84 93 89 90 81 72 81 82 78 76 80 64 63 64 62 59 57 73 80 85 76
40 39 32 35 38 45 45 73 56 43 39 41 47 65 70 59 55 50 46 46 47 48 46 49 60 66 63 73 80 74 79 87 80 82 85 74 76 80 80 79 78 63 68 69 65 85 80 70 73
33 29 36 40 38 42 43 47 39 42 58 42 51 67 68 58 50 46 45 46 47 48 47 51 62 68 69 69 69 72 80 72 67 78 83 82 78 80 80 78 77 75 72 72 75 80 70 74 72
27 28 36 37 37 36 36 32 78 46 40 45 55 68 63 56 48 46 45 46 47 49 49 54 65 73 77 67 73 68 64 59 64 83 81 75 78 77 79 80 82 68 68 61 62 68 73 66 66
19 23 40 43 33 33 32 32 29 34 40 48 55 62 58 54 48 46 46 46 47 50 52 57 67 77 76 76 74 67 64 65 60 65 78 79 82 80 84 78 78 69 75 69 66 69 66 65 62
18 23 26 38 36 31 28 32 27 38 41 49 52 56 53 50 47 46 46 46 48 51 54 62 72 78 82 89 78 70 68 63 67 63 76 85 82 78 86 74 80 81 82 69 64 62 53 52 60
18 19 30 27 34 30 29 33 23 36 40 46 50 51 50 49 47 47 46 47 49 49 56 65 64 76 81 80 84 79 69 65 76 70 82 93 91 72 82 76 69 69 71 76 74 63 57 52 56
11 18 23 29 32 27 30 46 49 33 37 42 47 48 48 48 48 49 47 48 50 52 59 65 65 73 81 87 82 75 73 70 67 70 77 92 94 70 84 70 81 73 70 66 62 60 59 50 50
11 12 14 24 29 26 28 38 80 30 32 38 44 45 47 46 48 49 48 49 50 54 62 68 68 72 84 88 87 74 75 74 72 71 78 83 84 74 91 79 72 80 70 61 63 60 61 51 52
7 10 12 14 23 28 32 40 84 28 29 37 42 44 46 46 47 49 49 49 50 56 63 70 72 74 82 84 81 72 71 69 79 69 82 87 91 78 70 91 64 78 84 72 72 52 54 51 55
9 11 12 12 19 29 38 33 28 27 28 35 40 42 44 45 47 49 50 49 50 57 64 70 75 78 83 81 77 70 65 62 64 64 80 85 84 85 90 86 84 72 75 86 77 76 65 58 51
10 11 14 16 20 24 28 35 26 30 27 32 37 39 39 43 45 48 50 49 50 55 64 72 77 78 83 75 76 77 71 66 65 67 74 82 86 88 91 74 83 70 75 80 85 67 68 63 52
13 9 9 12 18 26 22 39 35 57 29 29 33 38 36 39 43 46 50 50 50 53 65 70 77 77 77 72 70 73 68 61 60 64 65 74 85 86 87 87 92 86 86 80 85 80 77 69 53
13 9 7 8 13 19 21 28 24 23 34 28 29 33 35 37 40 43 48 51 50 52 62 69 77 77 75 51 65 71 70 63 61 58 65 66 81 88 81 89 93 87 77 84 88 79 65 62 66
11 11 10 9 8 15 20 25 25 30 26 24 25 29 32 34 37 39 44 48 51 51 57 66 76 76 64 60 45 67 67 62 55 57 69 68 75 81 86 85 84 94 90 74 92 94 65 78 64
13 14 19 18 14 12 9 19 20 19 21 23 21 25 30 32 35 38 41 44 51 51 54 63 76 82 61 70 48 56 63 54 62 63 64 60 56 58 68 76 90 89 69 97 94 78 83 89 79
15 14 18 25 15 10 7 12 17 13 18 24 29 24 25 30 32 36 39 43 48 53 55 58 70 82 80 68 56 35 42 64 66 65 62 62 54 53 63 68 86 90 94 92 94 91 91 81 85
16 18 11 14 12 11 7 6 6 11 13 21 23 18 24 27 29 34 37 40 45 51 56 60 64 77 72 82 64 41 34 41 60 57 62 68 60 56 61 76 91 86 86 86 90 84 84 95 86
14 12 17 14 25 24 12 10 7 7 11 13 14 16 24 33 27 30 36 40 43 48 52 60 65 76 81 78 75 54 37 32 45 62 73 71 66 64 66 70 78 87 86 85 84 79 80 86 83
15 18 18 16 14 20 20 12 8 7 7 11 12 15 16 22 24 28 33 38 43 46 50 56 63 70 82 82 83 69 65 64 40 67 68 74 74 75 64 75 81 83 86 87 87 79 76 82 83
12 11 12 23 26 16 16 14 7 7 6 8 11 13 14 16 20 25 27 33 39 45 49 53 58 65 75 80 84 74 70 70 66 39 72 73 73 74 79 65 80 80 78 84 89 91 74 88 85
Wind_Speed
13 12 5 7 2 7 5 2 7 9 12 12 12 11 16 20 6 11 30 24 23 22 19 20 19 16 14 13 11 10 9 10 11 10 6 6 7 7 8 9 10 12 10 12 12 12 13 10 9
12 14 8 3 4 8 3 5 7 6 16 18 11 14 12 17 13 32 32 24 24 21 19 17 18 15 14 12 11 10 10 11 10 8 7 8 8 7 7 8 9 12 11 12 14 12 12 12 11
10 10 3 3 6 4 1 7 9 12 20 15 12 13 10 11 26 32 27 29 25 21 19 18 18 16 14 13 11 11 10 10 10 9 9 9 9 8 7 7 8 9 12 13 15 14 13 13 12
11 6 4 4 10 4 5 6 11 14 18 11 13 14 12 13 27 27 31 28 24 21 19 20 18 16 15 13 13 12 11 11 10 10 10 10 9 8 8 8 9 9 12 13 13 14 14 13 14
5 5 4 6 7 3 9 7 3 12 13 13 12 10 16 16 22 29 29 26 23 22 18 20 18 17 15 13 12 12 12 13 12 11 11 10 9 9 9 10 8 10 11 12 12 13 14 13 13
4 9 8 5 4 6 11 6 5 9 11 6 22 18 11 16 27 30 28 25 23 19 18 18 17 16 15 14 13 13 13 14 14 14 12 11 11 10 10 10 10 13 13 14 14 14 12 12 13
14 5 11 1 2 7 10 9 4 14 12 8 13 11 14 21 30 30 27 24 22 20 18 16 15 17 15 14 13 13 15 15 15 14 12 12 11 11 11 12 13 15 14 14 13 13 13 14 15
13 5 11 5 4 15 18 15 8 11 7 9 14 6 15 29 32 30 27 25 22 22 18 17 14 12 14 13 13 14 16 15 15 13 13 13 15 15 15 13 14 14 14 13 14 13 14 15 16
10 6 2 4 4 8 15 7 7 3 9 9 9 11 25 37 34 31 28 26 23 20 19 17 15 13 15 10 14 15 15 14 14 15 17 18 10 11 11 11 15 15 13 12 13 15 14 16 20
9 8 5 12 9 8 16 18 17 11 12 11 11 21 32 39 36 33 31 29 25 22 20 18 17 15 14 12 14 11 11 11 11 11 9 12 8 11 9 14 15 15 14 13 15 15 13 12 10
13 12 12 8 7 13 5 6 15 12 12 16 17 30 36 39 36 34 31 28 26 23 21 19 17 16 15 15 13 11 14 11 8 8 6 11 7 8 8 5 9 9 11 10 10 6 7 11 9
15 12 5 4 11 13 7 13 10 11 2 15 22 29 37 38 36 34 31 28 26 23 21 20 18 17 15 11 15 13 10 11 8 8 8 9 8 3 5 13 4 9 5 6 6 9 12 3 14
16 11 4 10 11 13 13 4 3 22 13 20 27 29 36 35 33 31 28 27 25 24 23 20 19 18 12 17 13 12 10 10 10 8 9 5 10 7 4 4 8 8 8 5 7 4 7 4 5
7 17 6 9 14 12 14 10 13 13 18 23 28 29 34 34 33 31 29 28 26 24 23 21 19 18 16 15 12 13 12 10 9 9 8 8 6 8 8 2 5 9 4 7 7 6 4 4 5
18 10 15 21 13 12 11 15 13 14 22 24 27 28 33 33 32 31 30 28 26 24 23 22 20 18 17 12 14 14 16 10 11 9 10 8 7 5 5 5 6 5 2 9 4 6 6 5 5
16 16 15 18 14 17 14 9 17 21 24 25 26 27 32 32 31 30 29 28 25 24 24 21 19 19 17 15 15 11 13 11 10 8 8 7 6 8 2 6 5 5 5 4 9 5 3 4 6
15 14 20 12 22 14 14 3 17 24 23 24 25 28 32 33 31 30 30 28 27 25 24 23 21 19 19 16 14 12 13 12 10 10 11 8 6 7 7 1 6 11 3 8 5 6 5 4 6
17 18 17 15 22 20 15 13 22 24 23 22 24 27 32 34 33 32 31 29 27 25 24 24 22 20 19 16 15 14 12 11 11 11 8 7 5 6 7 8 6 8 7 7 7 5 4 7 4
20 14 19 18 15 15 15 13 30 19 20 23 24 27 31 34 34 31 32 30 29 27 25 25 24 23 21 18 18 16 14 13 11 10 8 8 7 6 9 5 7 8 3 10 7 7 7 5 3
19 14 16 18 15 12 9 16 11 20 18 23 25 27 30 32 34 33 33 32 31 30 28 28 27 25 25 20 19 16 15 12 11 10 9 9 9 8 6 7 6 8 4 5 7 7 8 4 5
18 18 16 14 14 15 10 12 17 17 22 22 23 25 29 34 36 36 35 35 33 32 31 31 31 29 27 21 20 17 16 13 13 13 10 10 10 9 9 7 9 9 9 6 8 7 6 4 6
18 17 18 17 16 12 19 12 17 14 20 20 24 27 29 32 34 36 35 37 36 35 32 31 32 32 29 29 22 22 19 18 15 14 11 12 12 10 8 8 7 8 6 6 6 6 8 5 6
17 16 16 17 18 16 19 18 17 21 16 23 24 28 29 32 36 38 39 38 37 35 34 32 33 34 30 33 26 25 22 18 15 14 15 13 13 12 10 9 9 7 8 8 7 8 10 8 5
16 17 15 14 15 18 24 18 21 15 16 24 27 31 30 31 34 36 37 36 36 36 34 34 36 36 36 34 34 29 26 22 18 17 15 14 12 12 13 11 11 9 7 7 7 6 11 9 9
17 16 13 14 14 19 24 24 18 23 27 14 23 33 34 32 34 35 38 40 39 39 39 37 38 39 40 36 36 35 31 29 21 19 18 16 15 14 16 15 12 8 7 7 9 9 9 9 8
24 22 15 22 15 20 24 26 23 25 19 14 19 38 35 33 34 36 39 40 42 41 42 42 41 41 41 41 40 40 38 27 26 24 19 19 16 15 14 14 14 12 11 9 9 7 6 8 9
22 24 25 25 24 17 19 26 24 26 26 26 32 24 36 37 34 35 37 39 41 42 45 47 44 45 45 41 42 43 41 37 28 27 26 20 20 16 17 14 13 15 13 12 12 9 9 8 9
21 18 21 18 24 27 20 22 19 27 24 26 20 18 22 27 34 33 35 37 39 41 42 43 44 45 44 43 44 44 43 41 36 31 28 25 21 23 14 18 17 16 17 16 16 12 13 12 11
16 20 18 18 23 21 19 17 15 21 25 24 24 28 24 27 25 28 33 36 38 37 38 41 43 43 42 43 44 43 41 39 41 36 36 31 27 22 25 20 18 18 18 18 19 17 13 14 14
24 22 26 18 22 21 21 16 14 13 21 24 24 29 36 31 27 30 30 33 36 38 38 40 41 41 43 43 45 46 43 39 38 44 38 33 33 29 27 24 22 19 19 19 20 19 17 17 15
Wind_Direction
156 135 151 196 253 224 232 113 110 134 115 147 144 105 90 52 48 103 145 138 142 144 149 144 149 150 149 149 148 150 145 143 146 153 137 115 114 105 107 94 77 80 83 81 91 89 96 114 121
167 180 167 238 242 241 193 120 142 88 116 136 130 122 80 67 92 129 140 144 145 144 140 145 151 150 148 143 145 151 149 144 144 146 138 129 118 111 106 95 83 72 86 84 93 99 99 101 110
173 154 246 222 268 280 141 101 107 135 122 100 96 93 63 98 124 133 140 143 142 139 144 153 142 143 140 139 138 132 134 138 138 136 130 130 123 114 94 83 80 78 88 94 94 97 100 93 106
172 206 270 236 251 283 57 116 128 141 101 133 134 91 86 127 139 138 142 142 143 143 151 146 141 140 138 133 133 133 134 132 133 129 128 130 116 105 94 87 82 89 97 100 94 93 101 100 98
200 256 260 260 267 120 143 121 354 144 117 143 114 93 110 120 142 145 144 146 145 146 145 142 140 139 139 134 133 133 131 128 126 126 123 119 112 104 99 89 82 98 104 99 90 93 96 97 104
230 242 254 280 153 133 118 81 114 123 163 122 108 113 119 139 149 150 148 149 147 145 143 142 140 140 136 138 133 133 130 130 126 120 116 111 105 101 96 92 93 108 105 104 101 95 97 96 100
248 281 272 234 57 121 145 138 177 152 159 178 159 111 139 155 156 153 151 150 148 145 148 142 141 140 139 135 134 130 130 127 121 118 114 107 103 99 90 88 98 111 108 106 107 101 96 93 92
241 265 257 64 143 139 136 141 224 170 172 168 151 148 161 161 160 155 154 154 151 150 147 144 144 140 132 131 134 132 133 128 123 119 107 102 99 88 78 80 102 108 112 106 107 103 99 96 91
256 259 323 71 168 114 138 134 155 107 158 164 176 156 156 157 159 158 158 156 154 149 152 153 147 143 143 149 138 139 136 127 121 115 98 96 90 88 90 107 101 107 112 112 111 103 99 90 82
230 265 265 116 159 126 154 150 161 164 174 150 149 124 149 157 161 162 162 162 162 156 158 155 157 155 146 150 127 138 134 128 125 137 95 103 129 127 109 94 94 98 104 105 110 103 105 119 82
217 265 17 74 98 153 258 39 184 159 185 155 147 145 156 162 165 167 165 166 166 160 160 160 157 156 152 170 142 151 157 153 149 141 144 139 140 137 117 101 106 87 99 96 116 113 98 108 84
253 238 102 198 164 165 166 176 187 164 49 145 148 156 161 167 168 168 169 168 168 164 164 163 163 161 162 156 160 159 120 160 162 164 144 154 148 164 192 85 93 170 97 141 157 60 89 92 103
231 236 290 183 195 150 161 217 184 132 126 133 148 157 165 169 169 171 171 170 170 169 169 167 166 166 165 162 155 161 158 160 164 172 155 200 150 158 149 181 146 65 170 118 74 95 97 135 101
248 235 188 214 220 196 194 188 218 140 131 140 153 160 168 172 174 172 175 172 174 173 173 173 171 171 170 167 163 161 162 162 173 168 193 175 153 207 153 161 180 144 99 134 148 124 111 103 99
254 258 208 189 197 254 238 224 202 134 147 151 159 165 172 176 176 177 177 176 177 176 175 178 174 173 175 176 168 170 164 165 170 175 196 176 137 196 144 148 191 167 46 154 118 120 138 110 96
236 238 235 211 190 228 238 227 162 157 157 159 163 170 174 179 180 180 181 180 180 179 180 180 177 178 177 174 175 184 161 180 174 184 180 176 192 180 114 188 149 141 132 192 136 152 140 112 108
210 229 226 194 184 216 217 46 300 164 161 159 164 172 177 180 182 184 184 183 183 182 182 182 179 181 180 180 180 180 177 177 173 186 183 172 185 173 146 164 106 134 150 136 153 148 154 132 129
211 219 223 205 202 213 213 175 243 172 166 159 167 173 179 183 185 185 186 186 186 186 186 184 183 185 184 185 175 176 184 187 173 186 208 188 194 188 156 163 184 140 153 139 154 146 167 143 153
270 227 233 213 165 216 211 190 217 170 169 158 171 175 182 185 185 186 188 188 189 188 188 187 186 191 186 186 178 179 183 190 176 172 180 183 191 191 153 190 173 160 199 164 139 132 143 144 137
256 259 262 236 168 196 235 234 202 171 175 166 174 177 184 184 185 187 190 191 192 192 191 190 190 196 190 190 184 185 183 186 188 191 193 184 186 212 169 185 177 163 199 163 175 211 178 157 191
236 240 244 253 176 221 229 251 233 185 172 167 176 180 184 187 186 189 192 193 195 196 195 194 193 197 196 189 189 190 192 193 197 194 202 196 194 190 177 200 160 183 172 191 198 192 214 184 202
238 225 256 255 258 225 218 231 248 166 184 170 179 183 185 188 192 192 194 196 198 199 199 200 198 199 203 184 196 195 188 193 197 200 200 198 195 194 190 209 185 177 222 214 188 212 230 235 198
246 255 229 236 253 263 249 233 205 202 198 178 184 188 189 190 192 193 197 198 199 199 200 200 204 203 200 204 190 203 195 200 199 199 194 189 202 196 200 222 199 202 190 206 201 209 196 218 233
243 245 256 253 235 239 237 222 239 192 208 198 190 189 194 192 194 197 199 199 200 201 202 202 205 208 204 212 200 201 207 198 204 201 197 198 202 202 202 208 227 209 189 209 197 205 196 184 215
217 222 224 226 224 235 226 236 239 179 211 222 199 196 190 194 195 196 195 198 200 200 202 202 204 210 211 209 212 203 203 198 206 207 204 203 206 210 221 210 218 221 210 213 208 205 206 212 207
216 225 233 221 218 231 227 225 226 249 189 195 253 204 192 192 194 197 199 199 200 201 201 202 204 209 212 210 215 214 214 210 204 211 207 208 211 213 219 233 213 210 224 210 238 214 200 227 215
236 217 236 254 258 250 215 220 241 222 236 174 226 186 193 187 193 196 199 201 201 202 203 202 203 209 214 209 214 219 218 213 212 210 215 208 214 215 212 222 218 216 216 223 223 212 232 221 223
246 237 222 237 248 254 248 230 212 216 228 227 227 250 165 229 189 195 199 202 204 205 206 205 206 208 211 207 213 217 220 221 209 212 212 211 211 214 214 221 220 220 219 220 224 220 220 223 220
219 247 256 262 224 246 247 241 231 204 209 228 222 212 232 206 186 197 201 204 206 206 205 207 208 208 210 210 210 212 216 217 219 210 215 207 209 216 224 214 223 222 222 222 223 213 220 231 220
253 243 230 242 238 228 251 249 251 222 200 204 232 220 223 224 208 200 205 203 203 205 206 207 207 208 211 209 209 214 213 212 215 215 213 219 220 220 223 231 225 227 221 221 223 223 218 220 227